GEESAT 3-03

导读

GEESAT 3-03是中国于北京时间2024年9月5日8时成功发射的商业卫星,隶属于GEESAT低轨卫星星座。作为星座组网的重要组成部分,它依托先进遥感技术,可提供高分辨率对地观测服务,广泛服务于国土测绘、环境监测、农业估产与防灾减灾等领域,进一步完善了中国自主商业遥感卫星网络,提升全球对地观测服务能力,支撑各行业数字化应用与空间信息保障需求。

基本信息
目录编号:
61013
目录名称:
GEESAT 3-03
国际标识:
2024-159C
轨道中心:
EARTH
卫星名称:
GEESAT 3-03
卫星全名:
GEESAT 3-03
卫星状态:
在轨 (已飞行690 天)
发射日期:
2024-09-05 UTC
国别 :
中国 (CN)
星等 :
--
轨道信息
数据来源 国际轨道数据 AOE轨道数据
星历时间 2026-07-27T22:48:06+0800
7小时前
查看轨道信息
2026-07-23T06:00:00+0800
5天前
查看轨道信息
半长轴 6993.705km 6993.784km
偏心率 0.0006008 0.0006051
轨道倾角 49.993° 49.992°
近地点辐角 280.769° 266.212°
升交点赤经 254.493° 276.304°
平近点角 79.258° 160.049°
近地点 611.366km 611.415km
远地点 619.77km 619.879km
周期 97.011分钟 97.013分钟
每日圈数 14.843688 14.843437
详细信息
使用方式:
暂无
2D轨道图
3D轨道图
轨道高度分析图
轨道倾角分析图
轨道综合分析图
查看轨道综合分析图